New Orleans NAS, LA

12:03 PM CDT on June 25, 2017 (GMT -0500)
New Orleans Naval Air Station

Weather History for KNBG - December, 2012

Change the Weather History Date:

Sunday, December 16, 2012

  Actual Average Record
Temperature  
Mean Temperature 66 °F -  
Max Temperature 77 °F 61 °F 80 °F (2011)
Min Temperature 55 °F 43 °F 30 °F (1997)
Cooling Degree Days 1    
Growing Degree Days 16 (Base 50)    
Moisture  
Dew Point 58 °F    
Average Humidity 81    
Maximum Humidity 94    
Minimum Humidity 60    
Precipitation  
Precipitation 0.00 in - - ()
Sea Level Pressure  
Sea Level Pressure 29.92 in    
Wind  
Wind Speed 3 mph (SSE)    
Max Wind Speed 14 mph    
Max Gust Speed 24 mph    
Visibility 7 miles    
Events Fog , Rain    
Averages and records for this station are not official NWS values.
T = Trace of Precipitation, MM = Missing Value Source: NWS Daily Summary

Daily Weather History Graph

Daily Weather History Graph

Search for Another Location

Airport or City:

Trip Planner

Search our weather history database for the weather conditions in past years. The results will help you decide how hot, cold, wet, or windy it might be!

Date:

Astronomy

Dec. 16, 2012 Rise Set
Actual Time 6:48 AM CST 5:03 PM CST
Civil Twilight 6:22 AM CST 5:29 PM CST
Nautical Twilight 5:52 AM CST 5:59 PM CST
Astronomical Twilight 5:23 AM CST 6:28 PM CST
Moon 9:34 AM CST (12/16) 9:02 PM CST (12/16)
Length of Visible Light 11h 06m
Length of Day
10h 14m
Waxing Crescent, 16% of the Moon is Illuminated
Dec 16
Waxing Crescent
Dec 19
First Quarter
Dec 28
Full
Jan 4
Last Quarter
Jan 11
New

Hourly Weather History & Observations

Time (CST) Temp. Dew Point Humidity Pressure Visibility Wind Dir Wind Speed Gust Speed Precip Events Conditions
12:00 AM 57.2 °F 55.4 °F 94% 29.99 in 1.8 mi Calm Calm - N/A   Clear
12:13 AM 60.8 °F 55.4 °F 82% 29.99 in 3.0 mi Calm Calm - N/A   Clear
12:55 AM 59.0 °F 55.9 °F 90% 29.97 in 3.0 mi SE 3.5 mph - N/A   Clear
2:21 AM 59.0 °F 55.4 °F 88% 29.96 in 1.8 mi Calm Calm - N/A   Clear
2:47 AM 57.2 °F 55.4 °F 94% 29.96 in 0.5 mi Calm Calm - N/A Fog Fog
2:55 AM 57.0 °F 53.1 °F 87% 29.96 in 0.2 mi Calm Calm - N/A Fog Fog
3:55 AM 59.0 °F 55.0 °F 87% 29.94 in 0.5 mi SSW 3.5 mph - N/A Fog Fog
4:13 AM 60.8 °F 57.2 °F 88% 29.93 in 3.0 mi Calm Calm - N/A   Partly Cloudy
4:20 AM 60.8 °F 57.2 °F 88% 29.92 in 1.8 mi Calm Calm - N/A   Clear
4:29 AM 57.2 °F 53.6 °F 88% 29.92 in 0.2 mi South 3.5 mph - N/A Fog Fog
4:55 AM 59.0 °F 55.9 °F 90% 29.92 in 0.5 mi Calm Calm - N/A Fog Fog
5:31 AM 55.4 °F 53.6 °F 94% 29.91 in 10.0 mi Calm Calm - N/A Fog Shallow Fog
5:55 AM 55.0 °F 53.1 °F 93% 29.93 in 10.0 mi Calm Calm - N/A Fog Shallow Fog
6:55 AM 57.0 °F 54.0 °F 89% 29.96 in 10.0 mi Calm Calm - N/A Fog Shallow Fog
7:08 AM 57.2 °F 53.6 °F 88% 29.95 in 7.0 mi Calm Calm - N/A   Overcast
7:55 AM 63.0 °F 59.0 °F 87% 29.95 in 7.0 mi Calm Calm - N/A   Mostly Cloudy
9:55 AM 71.1 °F 64.0 °F 78% 29.94 in 10.0 mi South 9.2 mph - N/A   Mostly Cloudy
10:55 AM 75.0 °F 64.0 °F 69% 29.94 in 10.0 mi SSW 12.7 mph - N/A   Overcast
11:55 AM 77.0 °F 64.0 °F 64% 29.94 in 10.0 mi SSW 12.7 mph - N/A   Overcast
12:55 PM 75.9 °F 63.0 °F 64% 29.90 in 10.0 mi SW 11.5 mph 20.7 mph N/A   Mostly Cloudy
1:55 PM 75.9 °F 63.0 °F 64% 29.86 in 10.0 mi SW 13.8 mph - N/A   Mostly Cloudy
2:55 PM 77.0 °F 62.1 °F 60% 29.86 in 10.0 mi SSW 13.8 mph 23.0 mph N/A   Mostly Cloudy
3:55 PM 75.0 °F 63.0 °F 66% 29.84 in 10.0 mi SSW 6.9 mph - N/A   Mostly Cloudy
4:55 PM 73.0 °F 63.0 °F 71% 29.87 in 10.0 mi SSW 6.9 mph - N/A   Mostly Cloudy
5:12 PM 68.0 °F 57.2 °F 68% 29.90 in 10.0 mi North 12.7 mph 24.2 mph 0.00 in Rain Light Rain
5:52 PM 64.4 °F 59.0 °F 83% 29.89 in 10.0 mi NNE 4.6 mph - 0.00 in Rain Light Rain
5:55 PM 64.0 °F 57.9 °F 80% 29.89 in 10.0 mi NNE 5.8 mph - 0.00 in   Overcast
6:55 PM 64.0 °F 57.9 °F 80% 29.89 in 10.0 mi ENE 9.2 mph - N/A   Overcast
7:55 PM 63.0 °F 57.0 °F 81% 29.91 in 10.0 mi East 4.6 mph - N/A   Overcast
8:55 PM 63.0 °F 57.0 °F 81% 29.91 in 10.0 mi ESE 4.6 mph - 0.00 in   Overcast
9:55 PM 63.0 °F 57.0 °F 81% 29.89 in 10.0 mi East 4.6 mph - N/A   Mostly Cloudy
10:55 PM 63.0 °F 57.0 °F 81% 29.86 in 10.0 mi ESE 9.2 mph - N/A   Mostly Cloudy
11:55 PM 63.0 °F 57.0 °F 81% 29.85 in 10.0 mi East 4.6 mph - N/A   Clear